Location: Proctor
(47.8934°N, 114.3048°W)
Time: 11:00:53
(UTC+00:00)

Transit 4A - Pass Details

Date: 27 June 2024
Orbit: 870 x 973 km, 66.8° (Epoch: 13 July)

Event Time Altitude Azimuth Distance (km) Brightness Sun altitude
Rises 09:15:18 0° 308° (NW) 3,468 11.1 -15.7°
Reaches altitude 10° 09:19:46 10° 340° (NNW) 2,540 10.9 -15.4°
Maximum altitude 09:21:49 12° 1° (N) 2,421 11.1 -15.3°
Drops below altitude 10° 09:23:53 10° 22° (NNE) 2,555 11.6 -15.1°
Sets 09:28:25 0° 53° (NE) 3,517 12.1 -14.8°
